Regional Weather Roundup
Issued by NWS Memphis, TN

Home | Current Version | Previous Version | Text Only | Print | Product List | Glossary On
Versions: 1 2 3 4 5 6 7 8 9 10 11 12 13 14 15 16 17 18 19 20 21 22 23 24 25 26 27 28 29 30 31 32 33 34 35 36 37 38 39 40 41 42 43 44 45 46 47 48 49 50
000
ASUS44 KMEG 221200
RWRMEG
MEMPHIS CWA HOURLY WEATHER ROUNDUP
NATIONAL WEATHER SERVICE MEMPHIS TN
600 AM CST WED NOV 22 2017

...WEST TENNESSEE...

CITY           SKY/WX    TMP DP  RH WIND       PRES   REMARKS
MEMPHIS INTL   CLEAR     36  26  67 N14G26    30.31R WCI  27
6HR MIN TEMP:  36; 6HR MAX TEMP:  48;

NWS MEMPHIS      N/A     35 N/A N/A MISG        N/A
JACKSON        CLEAR     33  26  75 N12       30.31R WCI  24
6HR MIN TEMP:  33; 6HR MAX TEMP:  45;

DYERSBURG      CLEAR     31  24  75 N8        30.35R WCI  23
6HR MIN TEMP:  31; 6HR MAX TEMP:  44;



...EASTERN ARKANSAS...

CITY           SKY/WX    TMP DP  RH WIND       PRES   REMARKS
JONESBORO      CLOUDY    34  22  61 N7        30.37R WCI  28
6HR MIN TEMP:  34; 6HR MAX TEMP:  46;

WEST MEMPHIS   CLEAR     33  25  72 N14       30.33R WCI  23
6HR MIN TEMP:  33; 6HR MAX TEMP:  46;

BATESVILLE     PTCLDY    33  20  58 N6        30.38R WCI  28
6HR MIN TEMP:  33; 6HR MAX TEMP:  46;

NEWPORT        CLOUDY    33  23  66 N10       30.38R WCI  25
6HR MIN TEMP:  33; 6HR MAX TEMP:  43;

WALNUT RIDGE     N/A     32  21  64 N9        30.38R WCI  24
6HR MIN TEMP:  30; 6HR MAX TEMP:  42;

BLYTHEVILLE    CLEAR     30  26  85 N10       30.37R WCI  21
6HR MIN TEMP:  30; 6HR MAX TEMP:  43;

SEARCY         CLEAR     36  22  56 N12G21    30.36R WCI  28
6HR MIN TEMP:  36; 6HR MAX TEMP:  49;

STUTTGART      CLEAR     40  27  59 N22G30    30.31  WCI  30
6HR MIN TEMP:  40; 6HR MAX TEMP:  47;

PINE BLUFF     CLEAR     41  27  57 N17G23    30.30R
6HR MIN TEMP:  41; 6HR MAX TEMP:  50;

MONTICELLO     CLEAR     45  27  49 N9G24     30.27R
6HR MIN TEMP:  45; 6HR MAX TEMP:  51;



...NORTH MISSISSIPPI...

CITY           SKY/WX    TMP DP  RH WIND       PRES   REMARKS
TUPELO         CLEAR     40  31  70 N16       30.20R WCI  31
6HR MIN TEMP:  35; 6HR MAX TEMP:  43;

OXFORD         CLOUDY    37  27  65 N12G18    30.25R WCI  30
BATESVILLE     CLEAR     40  26  56 N8G17     30.27R WCI  34
6HR MIN TEMP:  35; 6HR MAX TEMP:  44;

TUNICA           N/A    N/A N/A N/A N15       30.31R
CLARKSDALE       N/A     41  30  65 N20G25    30.27R
GREENWOOD      CLEAR     42  37  82 N8        30.20R
6HR MIN TEMP:  35; 6HR MAX TEMP:  43; 6HR PCP: TRACE;

COLUMBUS       CLEAR     40  38  90 N8        30.15R WCI  35
6HR MIN TEMP:  36; 6HR MAX TEMP:  41;

STARKVILLE     CLEAR     39  36  87 N6        30.16R WCI  35
GOLDEN TRIANGL CLEAR     41  37  86 N13       30.15R
6HR MIN TEMP:  39; 6HR MAX TEMP:  42;



...SOUTHEAST MISSOURI...

CITY           SKY/WX    TMP DP  RH WIND       PRES   REMARKS
KENNETT        CLEAR     32  25  74 N9        30.36R WCI  24
MALDEN         CLOUDY    32  23  69 N8        30.38S WCI  25
WEST PLAINS    CLOUDY    26  17  68 N8        30.36R WCI  18
6HR MIN TEMP:  26; 6HR MAX TEMP:  36;

POPLAR BLUFF   PTCLDY    31  21  66 N9        30.37R WCI  23
6HR MIN TEMP:  31; 6HR MAX TEMP:  41;

CAPE GIRARDEAU CLOUDY    29  20  69 N9        30.35S WCI  20
6HR MIN TEMP:  29; 6HR MAX TEMP:  35;



...NORTHWEST ALABAMA...

CITY           SKY/WX    TMP DP  RH WIND       PRES   REMARKS
MUSCLE SHOALS  PTCLDY    40  31  70 N7        30.21R
6HR MIN TEMP:  36; 6HR MAX TEMP:  45;



...MIDDLE TENNESSEE...

CITY           SKY/WX    TMP DP  RH WIND       PRES   REMARKS
NASHVILLE      PTCLDY    33  25  72 N9G18     30.25R WCI  25
6HR MIN TEMP:  33; 6HR MAX TEMP:  45;

CLARKSVILLE    CLEAR     30  22  72 N12       30.29R WCI  20
6HR MIN TEMP:  29; 6HR MAX TEMP:  41;



...WESTERN KENTUCKY...

CITY           SKY/WX    TMP DP  RH WIND       PRES   REMARKS
PADUCAH        CLOUDY    29  20  69 N6        30.34R WCI  23
6HR MIN TEMP:  29; 6HR MAX TEMP:  38;

FORT CAMPBELL  CLEAR     29  22  76 N6        30.29R WCI  23
6HR MIN TEMP:  29; 6HR MAX TEMP:  41;



...CENTRAL ARKANSAS...

CITY           SKY/WX    TMP DP  RH WIND       PRES   REMARKS
LITTLE ROCK    CLEAR     39  23  52 N14       30.34R WCI  31
6HR MIN TEMP:  39; 6HR MAX TEMP:  50;



SKY/WX REPORTED AS FAIR MEANS FEW OR NO CLOUDS BELOW
12 THOUSAND FEET.




USA.gov is the U.S. government's official web portal to all federal, state and local government web resources and services.